SCP
1 1 1 1 1 1 1 1 1 1 1 1 1 1 0 0 0 0 0 0 0 0 0 0 0 0 0 0 0 0 0 0 0 0 0 0 0 0
1 1 1 1 1 1 1 1 1 1 1 1 1 1 0 0 0 0 0 0 0 0 0 0 0 0 0 0 0 0 0 0 0 0 0 0 0 0
0 0 1 1 1 1 1 1 1 1 1 1 1 0 0 0 0 0 0 0 0 0 0 0 0 0 0 0 0 0 0 0 0 0 0 0 0 0
0 0 0 1 1 1 1 1 1 1 1 0 0 0 0 0 0 0 0 0 0 0 0 0 0 0 0 0 0 0 0 0 0 0 0 0 0 0
0 0 0 0 1 1 1 1 1 1 1 0 0 0 0 0 0 0 0 0 0 0 0 0 0 0 0 0 0 0 0 0 0 0 0 0 0 0
0 0 0 0 0 0 0 1 0 0 0 0 0 0 0 0 0 0 0 0 0 0 0 0 0 0 0 0 0 0 0 0 0 0 0 0 0 0
0 0 0 0 0 0 0 0 0 0 0 0 0 0 0 0 0 0 0 0 0 0 0 0 0 0 0 0 0 0 0 0 0 0 0 0 0 0
0 0 0 0 0 0 0 0 0 0 0 0 0 0 0 0 0 0 0 0 0 0 0 0 0 0 0 0 0 0 0 0 0 0 0 0 0 0
0 0 0 0 0 0 0 0 0 0 0 0 0 0 0 0 0 0 0 0 0 0 0 0 0 0 0 0 0 0 0 0 0 0 0 0 0 0
0 0 0 0 0 0 0 0 0 0 0 0 0 0 0 0 0 0 0 0 0 0 0 0 0 0 0 0 0 0 0 0 0 0 0 0 0 0
0 0 0 0 0 0 0 0 0 0 0 0 0 0 0 0 0 0 0 0 0 0 0 0 0 0 0 0 0 0 0 0 0 0 0 0 0 0
0 0 0 0 0 0 0 0 0 0 0 0 0 0 0 0 0 0 0 0 0 0 0 0 0 0 0 0 0 0 0 0 0 0 0 0 0 0
0 0 0 0 0 0 0 0 0 0 0 0 0 0 0 0 0 0 0 0 0 0 0 0 0 0 0 0 0 0 0 0 0 0 0 0 0 0
0 0 0 0 0 0 0 0 0 0 0 0 0 0 0 0 0 0 0 0 0 0 0 0 0 0 0 0 0 0 0 0 0 0 0 0 0 0
0 0 0 0 0 0 0 0 0 0 0 0 0 0 0 0 0 0 0 0 0 0 0 0 0 0 0 0 0 0 0 0 0 0 0 0 0 0
0 0 0 0 0 0 0 0 0 0 0 0 0 0 0 0 0 0 0 0 0 0 0 0 0 0 0 0 0 0 0 0 0 0 0 0 0 0
0 0 0 0 0 0 0 0 0 0 0 0 0 0 0 0 0 0 0 0 0 0 0 0 0 0 0 0 0 0 0 0 0 0 0 0 0 0
0 0 0 0 0 0 0 0 0 0 0 0 0 0 0 0 0 0 0 0 0 0 0 0 0 0 0 0 0 0 0 0 0 0 0 0 0 0
0 0 0 0 0 0 0 0 0 0 0 0 0 0 0 0 0 0 0 0 0 0 0 0 0 0 0 0 0 0 0 0 0 0 0 0 0 0
0 0 0 0 0 0 0 0 0 0 0 0 0 0 0 0 0 0 0 0 0 0 0 0 0 0 0 0 0 0 0 0 0 0 0 0 0 0
0 0 0 0 0 0 0 0 0 0 0 0 0 0 0 0 0 0 0 0 0 0 0 0 0 0 0 0 0 0 0 0 0 0 0 0 0 0
0 0 0 0 0 0 0 0 0 0 0 0 0 0 0 0 0 0 0 0 0 0 0 0 0 0 0 0 0 0 0 0 0 0 0 0 0 0
0 0 0 0 0 0 0 0 0 0 0 0 0 0 0 0 0 0 0 0 0 0 0 0 0 0 0 0 0 0 0 0 0 0 0 0 0 0
Wind_Speed
11 11 10 9 8 8 8 8 7 6 5 5 4 4 4 5 4 5 7 10 9 9 10 11 11 11 12 12 12 12 11 10 9 8 6 5 4 2
9 10 10 8 7 7 7 7 7 6 4 4 4 6 5 6 5 7 9 11 11 10 10 11 11 12 12 12 12 12 12 12 12 11 9 8 6 3
10 10 10 9 7 6 6 6 6 5 5 5 6 7 7 7 7 7 7 7 9 11 11 11 11 12 12 12 12 12 12 11 11 10 9 8 6 5
9 9 8 6 7 5 5 5 5 5 7 9 7 7 8 8 7 6 6 7 9 11 11 11 10 11 11 11 11 11 10 10 9 9 8 7 6 6
7 7 6 5 5 4 5 5 5 6 7 8 8 6 6 7 8 7 8 6 8 10 11 11 10 10 10 10 10 9 8 7 7 6 6 6 6 6
3 3 3 4 5 5 5 7 7 8 8 8 8 7 7 7 6 7 7 6 6 7 8 8 10 10 10 10 9 8 7 6 6 5 5 5 5 6
1 2 2 4 4 3 5 8 9 8 8 8 8 8 7 7 6 6 7 7 6 5 6 6 7 7 8 9 10 9 7 6 5 5 4 4 5 6
4 5 6 7 11 11 11 9 7 8 8 7 7 8 8 6 5 5 7 7 6 4 4 5 5 6 7 8 8 8 7 7 7 6 6 6 6 7
5 6 6 7 9 10 13 14 13 11 7 6 9 8 8 6 6 6 4 5 6 4 2 5 4 5 7 8 7 7 7 7 8 8 8 8 8 8
7 7 8 9 9 11 12 12 11 10 8 8 9 8 8 6 5 6 8 7 6 4 0 4 4 4 6 7 7 6 6 6 7 8 8 9 9 9
7 8 9 10 11 12 12 13 12 10 13 15 13 12 11 8 3 5 6 6 7 6 2 2 3 3 4 5 7 7 6 5 5 6 7 9 12 11
7 8 9 11 11 10 12 13 13 12 12 12 11 10 10 8 5 2 2 4 6 6 3 1 3 2 4 4 4 3 3 5 5 5 6 9 12 9
10 9 9 12 10 9 9 10 12 12 11 11 10 9 8 7 6 6 6 4 4 6 4 1 3 2 2 3 4 4 5 5 4 4 5 6 7 8
10 10 11 12 10 8 8 12 12 10 9 8 8 8 7 8 8 8 9 9 8 8 5 4 4 3 3 3 3 3 4 5 6 6 6 3 3 3
9 13 16 14 12 9 13 13 11 8 8 8 8 8 8 8 8 7 8 7 7 7 6 5 4 3 3 4 4 4 4 4 6 6 6 6 7 7
11 15 16 12 9 12 12 10 8 7 7 8 8 8 8 7 6 6 7 7 7 7 6 5 5 4 4 4 4 4 5 5 6 6 6 5 6 6
14 12 12 12 11 11 11 9 8 8 7 8 8 8 7 7 6 5 4 5 5 6 6 5 5 4 5 5 4 5 5 5 5 6 6 5 5 6
15 13 13 13 12 12 11 10 9 9 8 8 8 8 7 7 7 6 5 5 5 4 4 3 2 4 6 6 5 5 5 5 5 5 6 6 5 6
13 13 12 12 12 12 11 10 10 9 8 8 8 8 7 7 6 6 5 5 5 4 4 3 2 2 2 2 5 2 5 6 6 6 6 6 5 5
13 13 13 12 12 12 11 11 10 10 9 8 8 8 7 7 6 6 5 5 4 4 4 3 2 3 4 4 3 3 3 5 6 7 7 6 4 1
13 13 12 12 12 11 11 10 11 10 10 9 8 8 7 7 6 6 5 4 2 3 3 3 4 1 3 3 3 1 3 4 0 4 7 8 7 6
12 12 12 12 12 11 11 10 11 11 11 9 9 8 8 7 7 6 6 6 5 3 2 3 5 4 3 3 3 3 2 1 5 5 1 2 6 7
13 12 12 13 12 11 11 12 12 11 11 10 9 9 8 7 6 6 6 5 4 4 4 3 4 4 3 3 4 4 4 5 3 3 5 9 8 8
Wind_Direction
259 253 249 248 243 239 234 228 221 208 193 175 158 143 138 115 129 120 102 86 80 80 78 77 76 73 70 71 73 74 77 80 85 92 97 101 107 127
262 259 253 248 240 235 231 223 219 214 189 159 146 139 131 126 116 109 104 104 84 82 81 80 79 76 74 73 73 73 74 75 76 77 78 78 75 69
267 256 249 245 238 229 221 213 205 194 165 136 128 126 128 121 124 124 126 119 99 86 86 84 83 80 78 75 73 73 73 73 72 72 71 67 63 55
273 260 247 235 225 218 204 193 177 168 153 142 135 135 131 128 125 126 117 108 105 98 93 88 86 86 82 78 74 71 69 68 66 63 60 52 43 31
274 259 242 219 209 190 177 161 154 147 143 140 135 130 131 129 132 121 112 115 114 121 115 104 95 92 87 83 77 71 66 61 56 51 44 33 21 7
289 270 239 203 185 170 159 149 138 134 138 137 135 135 132 138 140 138 131 125 116 114 105 112 116 112 101 89 78 70 62 55 48 38 25 10 356 345
93 74 66 86 92 126 141 140 139 138 139 136 137 138 139 154 152 146 130 128 116 115 128 130 136 123 115 102 79 63 55 47 38 25 9 350 335 325
120 99 96 94 89 83 86 95 113 131 133 138 139 135 140 143 138 147 147 148 128 107 124 117 117 105 89 76 65 57 49 38 29 18 4 348 334 323
138 129 116 109 110 108 96 89 79 74 90 114 123 125 128 128 145 142 116 105 92 107 151 123 118 108 104 88 80 66 54 42 32 22 11 357 341 326
140 132 127 127 122 123 117 108 101 87 87 98 104 103 104 106 111 111 115 120 121 101 88 125 119 117 113 107 108 89 74 56 43 30 19 5 347 324
138 137 138 133 127 129 123 116 109 99 78 78 81 84 75 64 65 146 160 158 130 108 75 112 126 139 127 117 129 144 123 93 72 49 29 14 349 324
140 137 137 135 140 141 133 130 125 122 120 113 107 111 104 89 57 73 149 142 132 115 85 103 128 170 143 111 83 92 117 130 131 104 59 32 2 352
152 151 141 139 143 141 138 131 130 132 130 128 124 121 117 109 97 74 44 56 87 92 87 88 94 100 89 108 85 52 38 29 32 83 91 67 30 11
156 149 141 145 142 141 128 125 139 148 139 136 131 127 119 107 94 84 72 67 65 76 50 37 67 38 63 75 64 48 49 35 19 15 16 57 65 63
146 130 136 142 142 132 131 144 163 156 142 138 130 121 109 108 114 114 109 106 102 90 77 44 59 63 51 56 49 34 25 36 23 12 9 16 17 13
130 125 133 149 146 126 146 168 174 147 146 136 129 125 128 141 144 142 144 145 130 117 103 79 53 37 60 58 43 38 24 18 16 10 354 9 25 21
145 149 156 159 157 156 164 166 153 149 150 140 140 144 146 140 132 126 129 133 126 125 130 137 132 108 68 23 33 22 11 12 18 2 334 360 27 25
158 162 165 167 165 164 164 161 161 160 156 152 153 153 149 144 140 141 144 130 118 109 101 101 138 171 165 113 32 6 3 1 359 352 338 347 8 22
171 166 168 170 167 165 165 165 163 157 159 160 158 157 155 152 150 149 144 134 124 115 104 86 47 5 2 88 119 49 359 350 342 348 347 341 350 10
179 169 171 170 169 167 167 166 160 157 167 166 163 163 163 162 159 159 152 145 137 138 133 116 71 29 15 3 1 111 123 355 349 345 340 331 342 31
180 171 173 171 170 169 167 166 163 165 169 171 168 171 173 172 169 167 145 131 189 165 150 118 91 231 266 270 280 30 103 142 325 332 337 334 339 344
179 172 172 171 172 170 169 170 169 168 170 181 174 178 181 181 177 180 172 176 188 180 165 133 151 210 247 290 310 325 330 202 184 185 226 326 344 345
180 174 172 174 175 173 175 178 177 175 179 185 181 183 187 189 192 190 191 200 196 192 204 200 190 208 249 274 290 306 311 298 289 224 188 178 197 222